Location: Forst
(46.9333°N, 15.4333°E)
Time: 13:30:20
(UTC+00:00)

CZ-4 R/B - Visible Passes

Search period start: 13 April 2021 00:00
Search period end: 23 April 2021 00:00
Orbit: 532 x 597 km, 97.7° (Epoch: 12 April)

Date Brightness Start Highest point End Pass type
(mag) Time Alt. Az. Time Alt. Az. Time Alt. Az.
13 Apr 3.4 18:12:41 10° SSW 18:16:30 34° W 18:20:23 10° NNW visible
14 Apr 3.4 18:12:51 10° SSW 18:16:40 34° W 18:20:33 10° NNW visible
15 Apr 3.4 18:13:01 10° SSW 18:16:51 34° W 18:20:42 10° NNW visible
